Stations météo

réclame
Mon MeteoGroup
Tännäs, Suède (2308): Température de l'air & dewpoint: 10.12.2017 16:00:00 - 16.12.2017 16:00:00 (CET)Tännäs, Suède (2308): Vitesse du vent & gusts: 10.12.2017 16:00:00 - 16.12.2017 16:00:00 (CET)Tännäs, Suède (2308): Direction du vent: 10.12.2017 16:00:00 - 16.12.2017 16:00:00 (CET)Tännäs, Suède (2308): reduced air pressure: 10.12.2017 16:00:00 - 16.12.2017 16:00:00 (CET)Tännäs, Suède (2308): visibility: 10.12.2017 16:00:00 - 16.12.2017 16:00:00 (CET)Tännäs, Suède (2308): Quantités de précipitations: 10.12.2017 16:00:00 - 16.12.2017 16:00:00 (CET)
Date & Time tt [°C] td [°C] ff [km/h] ff [knt] fx [km/h] fx [knt] dd ppp [hPa] vv [km] rr [mm]
16.12.2017 16:00:00 - - - - - - - - - -
16.12.2017 15:00:00 -11,7 -12,7 3 2 7 4 NNE 1006,4 30 0,0
16.12.2017 14:00:00 -10,5 -11,8 1 1 9 5 SE 1005,7 32 0,0
16.12.2017 13:00:00 -10,7 -12,0 2 1 12 7 ENE 1005,3 32 0,0
16.12.2017 12:00:00 -11,3 -12,9 2 1 8 5 WSW 1004,9 38 0,0
16.12.2017 11:00:00 -12,7 -14,1 2 1 6 4 W 1004,7 38 0,0
16.12.2017 10:00:00 -12,2 -13,6 1 1 5 3 E 1003,9 35 0,0
16.12.2017 09:00:00 -12,2 -13,6 1 1 10 5 NNW 1003,2 41 0,0
16.12.2017 08:00:00 -12,2 -13,6 2 1 5 3 NNW 1002,5 42 0,0
16.12.2017 07:00:00 -11,7 -13,1 3 1 9 5 NW 1001,7 39 0,0
16.12.2017 06:00:00 -11,3 -12,7 1 1 8 4 NW 1000,9 40 0,0
16.12.2017 05:00:00 -10,8 -12,3 2 1 9 5 NNW 1000,2 42 0,0
16.12.2017 04:00:00 -9,9 -11,2 1 1 5 3 N 999,7 32 0,0
16.12.2017 03:00:00 -9,0 -10,1 1 1 7 4 ESE 998,9 12 0,0
16.12.2017 02:00:00 -9,0 -10,1 1 1 5 3 NW 998,5 10 0,0
16.12.2017 01:00:00 -8,6 -9,8 1 1 5 3 SSE 997,9 - 0,0
16.12.2017 00:00:00 -8,4 -9,5 3 2 6 3 WNW 997,5 - 0,0
15.12.2017 23:00:00 -8,5 -9,6 1 1 3 2 SSW 997,0 6 0,1
15.12.2017 22:00:00 -8,6 -9,7 2 1 5 3 SSE 996,8 3,8 0,2
15.12.2017 21:00:00 -8,7 -9,9 1 1 5 3 N 996,3 7 0,1
15.12.2017 20:00:00 -8,8 -10,0 1 1 6 3 SSW 995,8 3,2 0,2
15.12.2017 19:00:00 -8,8 -10,0 1 0 4 2 SE 995,5 2,8 0,3
15.12.2017 18:00:00 -8,8 -10,0 1 1 5 3 WNW 994,9 3,0 0,0
15.12.2017 17:00:00 -8,9 -10,1 1 1 9 5 SSW 994,5 4,2 0,2
15.12.2017 16:00:00 -8,9 -10,2 3 1 15 8 W 994,0 1,6 0,4
15.12.2017 15:00:00 -8,7 -9,9 6 3 14 8 WNW 993,6 0,9 0,6
15.12.2017 14:00:00 -8,5 -9,8 6 3 16 9 WNW 993,0 1,1 0,6
15.12.2017 13:00:00 -8,3 -9,5 5 3 15 8 W 992,7 0,9 0,6
15.12.2017 12:00:00 -8,1 -9,4 6 4 16 8 WNW 992,2 1,7 0,5
15.12.2017 11:00:00 -7,8 -9,2 6 3 15 8 WNW 991,9 4,2 0,2
15.12.2017 10:00:00 -7,7 -8,9 5 3 12 7 W 991,4 8 0,0
15.12.2017 09:00:00 -7,3 -8,5 4 2 11 6 W 990,6 21 0,0
15.12.2017 08:00:00 -7,0 -8,2 4 2 11 6 W 990,1 31 0,0
15.12.2017 07:00:00 -6,9 -8,3 3 2 16 9 WNW 989,3 37 0,0
15.12.2017 06:00:00 -6,7 -8,1 7 4 14 8 WNW 989,0 48 0,0
15.12.2017 05:00:00 -6,3 -7,5 4 2 12 6 W 988,4 33 0,0
15.12.2017 04:00:00 -6,2 -7,3 4 2 13 7 W 988,2 50 0,0
15.12.2017 03:00:00 -5,8 -6,9 4 2 11 6 W 987,7 43 0,0
15.12.2017 02:00:00 -5,4 -6,6 3 2 10 6 WSW 987,3 50 0,0
15.12.2017 01:00:00 -5,0 -6,2 2 1 9 5 W 986,8 50 0,0
15.12.2017 00:00:00 -5,3 -6,1 2 1 5 3 W 986,7 50 0,0
14.12.2017 23:00:00 -5,1 -5,9 1 1 5 3 SSW 986,3 50 0,0
14.12.2017 22:00:00 -5,3 -6,1 2 1 7 4 WNW 986,1 50 0,0
14.12.2017 21:00:00 -5,1 -5,9 2 1 8 4 WNW 985,8 50 0,0
14.12.2017 20:00:00 -5,3 -6,1 2 1 7 4 W 985,8 50 0,0
14.12.2017 19:00:00 -5,2 -5,9 2 1 5 3 W 985,5 10 0,0
14.12.2017 18:00:00 -5,8 -6,6 1 1 3 2 W 985,4 9 0,0
14.12.2017 17:00:00 -5,2 -6,0 1 0 4 2 W 984,9 50 0,0
14.12.2017 16:00:00 -5,4 -6,1 1 1 5 3 N 984,7 50 0,0
14.12.2017 15:00:00 -6,4 -7,3 2 1 6 3 NW 984,6 50 0,0
14.12.2017 14:00:00 -6,4 -7,2 1 1 8 4 NNE 984,5 50 0,0
14.12.2017 13:00:00 -6,8 -7,6 1 1 6 4 NE 984,5 49 0,0
14.12.2017 12:00:00 -7,0 -8,4 2 1 10 6 WNW 984,6 29 0,0
14.12.2017 11:00:00 -6,7 -7,6 1 1 8 5 ENE 984,3 43 0,0
14.12.2017 10:00:00 -7,2 -8,6 3 2 11 6 SSW 984,3 50 0,0
14.12.2017 09:00:00 -8,0 -9,1 2 1 9 5 NE 984,1 18 0,0
14.12.2017 08:00:00 -8,0 -8,8 2 1 7 4 E 983,7 50 0,0
14.12.2017 07:00:00 -8,4 -9,3 3 1 8 5 E 983,6 41 0,0
14.12.2017 06:00:00 -9,9 -11,1 2 1 5 3 W 983,8 50 0,0
14.12.2017 05:00:00 -10,2 -11,5 2 1 5 3 ESE 983,7 43 0,0
14.12.2017 04:00:00 -9,6 -10,7 2 1 14 8 W 983,5 50 0,0
14.12.2017 03:00:00 -9,8 -11,0 1 1 6 3 NNW 983,5 50 0,0
14.12.2017 02:00:00 -9,9 -11,0 2 1 8 5 N 983,4 50 0,0
14.12.2017 01:00:00 -10,4 -11,6 2 1 8 4 NW 983,7 50 0,0
14.12.2017 00:00:00 -9,8 -11,0 2 1 6 3 SSE 983,7 40 0,0
13.12.2017 23:00:00 -10,9 -12,5 3 1 6 4 ESE 984,0 21 0,0
13.12.2017 22:00:00 -10,6 -12,1 2 1 13 7 ENE 984,2 50 0,0
13.12.2017 21:00:00 -9,8 -11,3 2 1 8 4 E 984,7 50 0,0
13.12.2017 20:00:00 -11,1 -12,7 2 1 7 4 ENE 985,4 16 0,1
13.12.2017 19:00:00 -10,1 -11,6 2 1 6 3 NE 985,8 4,7 0,0
13.12.2017 18:00:00 -11,0 -12,6 1 1 6 3 ESE 986,4 50 0,0
13.12.2017 17:00:00 -11,2 -13,2 3 1 8 4 SE 986,9 50 0,0
13.12.2017 16:00:00 -11,9 -13,9 3 2 11 6 ESE 987,2 50 0,0
13.12.2017 15:00:00 -11,4 -13,8 3 2 13 7 SE 987,3 50 0,0
13.12.2017 14:00:00 -11,0 -13,3 3 2 10 5 SE 987,6 50 0,0
13.12.2017 13:00:00 -11,1 -13,5 3 2 11 6 SSE 988,2 50 0,0
13.12.2017 12:00:00 -10,8 -12,8 3 2 7 4 SSE 988,4 50 0,0
13.12.2017 11:00:00 -12,1 -14,0 2 1 9 5 SSE 989,1 50 0,0
13.12.2017 10:00:00 -12,3 -14,0 2 1 9 5 E 989,8 50 0,0
13.12.2017 09:00:00 -11,1 -12,4 2 1 9 5 N 989,6 50 0,0
13.12.2017 08:00:00 -12,4 -13,8 2 1 6 3 N 990,0 50 0,0
13.12.2017 07:00:00 -12,0 -13,6 3 2 8 4 ENE 990,4 50 0,0
13.12.2017 06:00:00 -11,0 -12,5 2 1 6 4 ESE 990,4 50 0,0
13.12.2017 05:00:00 -11,5 -13,1 3 1 9 5 NNE 990,6 50 0,0
13.12.2017 04:00:00 -11,0 -12,5 2 1 9 5 N 991,0 50 0,0
13.12.2017 03:00:00 -11,8 -13,2 2 1 7 4 NNE 991,5 50 0,0
13.12.2017 02:00:00 -12,2 -13,9 2 1 15 8 ESE 991,8 50 0,0
13.12.2017 01:00:00 -13,0 -14,4 2 1 8 5 ENE 992,2 50 0,0
13.12.2017 00:00:00 -14,5 -16,3 2 1 4 2 SSE 993,0 32 0,0
12.12.2017 23:00:00 -14,9 -16,4 2 1 7 4 E 993,4 50 0,0
12.12.2017 22:00:00 -15,1 -16,8 1 1 7 4 ENE 994,0 50 0,0
12.12.2017 21:00:00 -16,1 -17,9 1 0 9 5 SSE 994,5 50 0,0
12.12.2017 20:00:00 -16,4 -18,2 1 1 4 2 N 994,6 50 0,0
12.12.2017 19:00:00 -16,0 -17,9 1 1 3 2 NW 994,9 50 0,0
12.12.2017 18:00:00 -15,7 -17,5 3 1 6 3 N 995,2 50 0,0
12.12.2017 17:00:00 -15,3 -17,1 1 1 6 3 NNE 995,5 50 0,0
12.12.2017 16:00:00 -14,0 -15,6 1 1 6 3 N 995,3 50 0,0
12.12.2017 15:00:00 -12,1 -13,7 3 2 9 5 NW 995,2 50 0,0
12.12.2017 14:00:00 -9,9 -11,2 6 3 16 9 W 994,9 30 0,0
12.12.2017 13:00:00 -9,5 -11,0 4 2 11 6 W 995,2 41 0,0
12.12.2017 12:00:00 -9,4 -10,9 4 2 13 7 W 995,6 32 0,0
12.12.2017 11:00:00 -8,9 -10,4 4 2 10 5 WNW 996,0 28 0,0
12.12.2017 10:00:00 -9,0 -10,2 1 1 6 3 WNW 996,5 36 0,0
12.12.2017 09:00:00 -10,0 -11,1 1 0 4 2 ESE 996,9 48 0,0
12.12.2017 08:00:00 -11,6 -12,9 1 1 6 4 N 997,2 50 0,0
12.12.2017 07:00:00 -10,1 -11,4 2 1 9 5 NNW 996,9 50 0,0
12.12.2017 06:00:00 -8,3 -9,4 2 1 4 2 WNW 997,0 46 0,0
12.12.2017 05:00:00 -8,7 -9,6 1 1 7 4 N 997,1 33 0,0
12.12.2017 04:00:00 -7,6 -9,0 4 2 10 6 NW 997,3 50 0,0
12.12.2017 03:00:00 -7,6 -8,8 4 2 10 6 NNW 997,8 42 0,0
12.12.2017 02:00:00 -7,5 -8,6 1 1 5 3 NNE 998,3 50 0,0
12.12.2017 01:00:00 -7,4 -8,8 2 1 13 7 S 998,2 50 0,0
12.12.2017 00:00:00 -7,3 -8,7 4 2 13 7 SE 998,1 50 0,0
11.12.2017 23:00:00 -7,1 -8,2 3 1 12 6 S 998,2 50 0,0
11.12.2017 22:00:00 -7,0 -7,9 3 2 16 9 S 998,1 27 0,1
11.12.2017 21:00:00 -7,1 -8,2 6 3 15 8 E 998,4 3,9 0,2
11.12.2017 20:00:00 -7,3 -8,4 5 3 19 10 E 998,3 3,4 0,3
11.12.2017 19:00:00 -7,1 -8,2 7 4 16 9 E 997,9 27 0,0
11.12.2017 18:00:00 -7,1 -8,2 4 2 14 8 E 997,6 34 0,1
11.12.2017 17:00:00 -7,1 -8,0 5 3 17 9 E 997,2 14 0,0
11.12.2017 16:00:00 -7,9 -9,0 4 2 12 7 ENE 997,3 13 0,0
11.12.2017 15:00:00 -7,4 -8,3 3 2 8 5 E 996,6 3,4 0,1
11.12.2017 14:00:00 -7,9 -9,0 3 1 8 4 ESE 996,1 44 0,0
11.12.2017 13:00:00 -9,0 -10,6 3 1 9 5 SE 995,9 46 0,0
11.12.2017 12:00:00 -8,9 -10,0 2 1 9 5 NE 995,7 26 0,0
11.12.2017 11:00:00 -9,9 -11,2 2 1 6 3 NE 995,8 18 0,1
11.12.2017 10:00:00 -9,4 -10,5 1 1 5 3 NW 995,3 8 0,2
11.12.2017 09:00:00 -10,4 -11,6 3 1 4 2 WNW 994,9 48 0,1
11.12.2017 08:00:00 -10,6 -11,6 1 1 5 3 NW 994,3 4,2 0,0
11.12.2017 07:00:00 -10,5 -11,8 2 1 10 5 S 993,5 24 0,1
11.12.2017 06:00:00 -11,4 -12,7 2 1 6 3 N 992,8 50 0,0
11.12.2017 05:00:00 -10,7 -12,0 1 1 5 3 SSE 992,1 3,7 0,0
11.12.2017 04:00:00 -10,9 -12,1 1 1 6 4 W 991,9 7 0,0
11.12.2017 03:00:00 -11,9 -13,3 3 2 9 5 N 991,3 31 0,0
11.12.2017 02:00:00 -12,0 -13,7 1 1 5 3 ENE 990,9 50 0,0
11.12.2017 01:00:00 -11,5 -12,8 2 1 6 3 ESE 990,3 17 0,0
11.12.2017 00:00:00 -12,5 -13,9 2 1 8 5 W 990,0 50 0,0
10.12.2017 23:00:00 -13,4 -15,4 3 1 9 5 N 989,9 31 0,0
10.12.2017 22:00:00 -13,4 -15,1 2 1 9 5 NE 989,6 48 0,0
10.12.2017 21:00:00 -13,8 -15,5 2 1 5 3 E 989,1 50 0,0
10.12.2017 20:00:00 -14,0 -15,4 1 1 5 3 NNE 988,6 36 0,0
10.12.2017 19:00:00 -14,6 -16,2 1 1 3 2 W 988,4 4,3 0,0
10.12.2017 18:00:00 -14,9 -16,6 1 1 5 3 ENE 988,2 6 0,1
10.12.2017 17:00:00 -15,3 -17,0 1 1 3 2 NNE 987,9 50 0,0
10.12.2017 16:00:00 -14,5 -16,2 1 1 4 2 SE 987,4 50 0,0

tt = Température de l'air
td = dewpoint
ff = Vitesse du vent
fx = gusts
dd = Direction du vent
ppp = reduced air pressure
vv = visibility
rr = Quantités de précipitations

stations d'obs. à proximité